This demonstration page uses our WeatherBlox Daily Observations layout. Learn more.

Left ArrowRight Arrow

36.17497, -115.13722

Hourly Observations for January 31, 2022

Temp ( °F °C ) Dew Point ( °F °C ) Humidity (%) Winds ( mph kmh ) Pressure ( in mb ) Visibility ( mi km ) Precip ( " mm )
12:53 am 00:53 Clear 44 6.7 8 -13.3 23 23 Calm 30.17 1022 10 16 0.00 0.00
1:53 am 01:53 Clear 40 4.4 10 -12.2 29 29 WNW 5 7 30.18 1022 10 16 0.00 0.00
2:53 am 02:53 Clear 40 4.4 9 -12.8 28 28 NW 7 11 30.16 1022 10 16 0.00 0.00
3:53 am 03:53 Clear 40 4.4 6 -14.4 24 24 NW 8 13 30.15 1021 10 16 0.00 0.00
4:53 am 04:53 Clear 39 3.9 6 -14.4 25 25 WNW 5 7 30.15 1021 10 16 0.00 0.00
5:53 am 05:53 Clear 41 5 5 -15 22 22 N 8 13 30.16 1021 10 16 0.00 0.00
6:53 am 06:53 Sunny 40 4.4 6 -14.4 24 24 Calm 30.18 1022 10 16 0.00 0.00
7:53 am 07:53 Sunny 42 5.6 8 -13.3 24 24 N 3 6 30.19 1022 10 16 0.00 0.00
8:53 am 08:53 Sunny 48 8.9 8 -13.3 19 19 Calm 30.18 1022 10 16 0.00 0.00
9:53 am 09:53 Sunny 50 10 7 -13.9 17 17 Calm 30.18 1022 10 16 0.00 0.00
10:53 am 10:53 Sunny 53 11.7 7 -13.9 15 15 Calm 30.15 1021 10 16 0.00 0.00
11:53 am 11:53 Sunny 55 12.8 8 -13.3 15 15 E 3 6 30.12 1020 10 16 0.00 0.00
12:53 pm 12:53 Sunny 56 13.3 8 -13.3 14 14 Calm 30.08 1019 10 16 0.00 0.00
1:53 pm 13:53 Sunny 56 13.3 8 -13.3 14 14 E 3 6 30.04 1017 10 16 0.00 0.00
2:53 pm 14:53 Sunny 57 13.9 9 -12.8 15 15 ESE 3 6 30.02 1017 10 16 0.00 0.00
3:53 pm 15:53 Sunny 56 13.3 8 -13.3 14 14 E 5 7 30.01 1016 10 16 0.00 0.00
4:53 pm 16:53 Sunny 56 13.3 8 -13.3 14 14 Calm 29.99 1016 10 16 0.00 0.00
5:53 pm 17:53 Clear 55 12.8 10 -12.2 16 16 W 5 7 30.00 1016 10 16 0.00 0.00
6:53 pm 18:53 Clear 54 12.2 11 -11.7 18 18 Calm 30.01 1016 10 16 0.00 0.00
7:53 pm 19:53 Clear 51 10.6 12 -11.1 21 21 WNW 5 7 30.00 1016 10 16 0.00 0.00
8:53 pm 20:53 Clear 50 10 14 -10 24 24 NW 5 7 29.99 1016 10 16 0.00 0.00
9:53 pm 21:53 Clear 49 9.4 16 -8.9 27 27 Calm 29.97 1015 10 16 0.00 0.00
10:53 pm 22:53 Clear 47 8.3 15 -9.4 28 28 Calm 29.96 1015 10 16 0.00 0.00
11:53 pm 23:53 Clear 46 7.8 17 -8.3 31 31 NW 3 6 29.94 1014 10 16 0.00 0.00

Powered by AerisWeather